Regional Weather Roundup
Issued by NWS

Home | Current Version | Previous Version | Graphics & Text | Print | Product List | Glossary Off
Versions: 1 2 3 4 5 6 7 8 9 10 11 12 13 14 15 16 17 18 19 20 21 22 23 24 25 26 27 28 29 30 31 32 33 34 35 36 37 38 39 40 41 42 43 44 45 46 47 48 49 50

000
ASUS43 KDTX 200910
RWRMI
MICHIGAN HOURLY REGIONAL WEATHER ROUNDUP
NATIONAL WEATHER SERVICE DETROIT/PONTIAC MI
400 AM EST SAT DEC 20 2014

NOTE: "FAIR" INDICATES FEW OR NO CLOUDS BELOW 12,000 FEET WITH NO
SIGNIFICANT WEATHER AND/OR OBSTRUCTION TO VISIBILITY.

MIZ047>049-052>055-059>063-066>070-074>076-081>083-201000-
SOUTHEAST LOWER MICHIGAN

CITY           SKY/WX    TMP DP  RH WIND       PRES   REMARKS
ADRIAN         CLOUDY    28  24  85 CALM      30.29R
ALMA           CLEAR     17  17  97 CALM      30.30R
ANN ARBOR      CLOUDY    27  22  81 NE3       30.28F
BAD AXE        CLOUDY    17  17  97 CALM      30.29F
DETROIT CITY   CLOUDY    26  19  74 CALM      30.30S
DETROIT        CLOUDY    26  21  81 N3        30.30S
FLINT          CLEAR     19  15  84 CALM      30.30R
GROSSE ILE     CLOUDY    27  21  80 CALM      30.29S
HILLSDALE      CLOUDY    27  23  84 CALM      30.25S
HOWELL         CLOUDY    22  20  94 CALM      30.27F

CITY           SKY/WX    TMP DP  RH WIND       PRES   REMARKS
JACKSON        CLOUDY    23  21  92 CALM      30.27R
LAMBERTVILLE   CLOUDY    32  23  69 CALM      30.29S
LANSING        CLEAR     17  14  88 CALM      30.29S FOG
LAPEER         NOT AVBL
MASON          CLOUDY    21  19  92 CALM      30.27F
MONROE         CLOUDY    28  23  80 CALM      30.28S
MT. CLEMENS    MOCLDY    22  21  99 W3        30.27S
PONTIAC        CLOUDY    21  19  92 CALM      30.27S
PORT HOPE        N/A     27  21  78 SW5       30.28R
PORT HURON     MOCLDY    19  18  93 CALM      30.29S
TRI CITIES     CLEAR     21  17  84 W3        30.29S
YPSILANTI      CLOUDY    28  21  75 N3        30.29F
$$
MIZ043>046-050>051-056>058-064>065-071>073-077>080-201000-
SOUTHWEST LOWER MICHIGAN

CITY           SKY/WX    TMP DP  RH WIND       PRES   REMARKS
BATTLE CREEK   MOCLDY    22  17  81 CALM      30.27S
BENTON HARBOR  CLOUDY    25  22  88 CALM      30.28R
BIG RAPIDS     MOCLDY    16  15  96 CALM      30.26S
COLDWATER      CLOUDY    26  24  93 MISG      30.27S FOG
HOLLAND        PTCLDY    22  17  81 E5        30.28S
GRAND RAPIDS   CLEAR     19  16  88 CALM      30.28R
KALAMAZOO      CLEAR     19  16  88 CALM      30.27S FOG
MARSHALL       CLOUDY    18  16  93 CALM      30.27R
MUSKEGON       PTCLDY    20  16  84 CALM      30.29R
$$
MIZ016>042-201000-
NORTHERN LOWER MICHIGAN

CITY           SKY/WX    TMP DP  RH WIND       PRES   REMARKS
ALPENA         CLEAR     10   8  92 CALM      30.29R
BEAVER ISLAND  CLOUDY    21  20  96 CALM      30.27S
BELLAIRE       CLOUDY    24  22  91 CALM      30.29S
CADILLAC       CLOUDY    10   7  85 CALM      30.23F
CHARLEVOIX     CLOUDY    24  22  91 E5        30.30S
FRANKFORT      CLOUDY    28  24  87 CALM      30.27S
GAYLORD        CLOUDY    11   9  92 CALM      30.24S
GRAYLING       CLOUDY    12  10  91 CALM      30.26S
HARBOR SPRINGS CLOUDY    11   8  87 NE3       30.28S
HOUGHTON LAKE  PTCLDY     7   2  80 CALM      30.26S
MANISTEE       CLOUDY    23  18  80 SE3       30.28S
OSCODA         CLEAR      6   4  89 CALM      30.28S
PELLSTON       PTCLDY     0  -5  79 CALM      30.29R
TRAVERSE CITY  CLOUDY    27  20  75 CALM      30.27S
$$
MIZ007>008-015-201000-
EASTERN UPPER MICHIGAN

CITY           SKY/WX    TMP DP  RH WIND       PRES   REMARKS
KINROSS        PTCLDY     7   7 100 CALM      30.27S
MACKINAC ISLAN PTCLDY    16  15  97 N3        30.27S
NEWBERRY       CLOUDY    24  20  85 CALM      30.25S
S. S. MARIE    PTCLDY    12   8  84 NE5       30.27F
$$
MIZ004>006-011>014-085-201000-
CENTRAL UPPER MICHIGAN

CITY           SKY/WX    TMP DP  RH WIND       PRES   REMARKS
MANISTIQUE     CLOUDY    20  19  96 CALM      30.26S
ESCANABA       PTCLDY    12   9  85 CALM      30.26R
MENOMINEE      PTCLDY    12  10  92 CALM      30.26S
SAWYER-GWINN   FOG       10   7  88 CALM      30.21R VSB 1/2
$$
MIZ001>003-009>011-084-201000-
WESTERN UPPER MICHIGAN

CITY           SKY/WX    TMP DP  RH WIND       PRES   REMARKS
IRON MOUNTAIN  FOG       12   9  87 CALM      30.22R VSB 1/4
HOUGHTON       PTCLDY    20  16  84 S5        30.18S
COPPER HARBOR    N/A     26  20  77 SW3       30.21S
IRONWOOD       CLOUDY    25  21  86 S7        30.15R
$$

ABBREVIATIONS USED IN REMARKS
   TC - TEMPERATURE IN CELSIUS
  WCI - WIND CHILL INDEX
   HX - HEAT INDEX
  VSB - VISIBILITY



USA.gov is the U.S. government's official web portal to all federal, state and local government web resources and services.